Date String (YYYY-MM-DD hh:mm:ss) UTC,Instrument flags,absolute air pressure of the measurement (hPa),sample flow rate (lpm),inlet stack bypass flow (lpm),air temperature of the measurement (°C),ambient temperature measured by the external sensor (°C),aerosol sample conditioner tube jacket temperature (°C),OPC LED temperature (°C),internal box temperature (°C),relative humidity of the measurement (%),span deviation,mass concentration of particles derived from Lorenz-Mie calculation of OPC scattering (μg/m³),mass concentration of particles derived from Lorenz-Mie calculation of OPC scattering (μg/m³),mass concentration of particles derived from Lorenz-Mie calculation of OPC scattering (μg/m³)
DateTimeUTC,F1_M11,P_M11,Q1_M11,Q2_M11,T1_M11,T2_M11,T3_M11,T4_M11,T5_M11,U1_M11,ZSPAN_M11,X0_M11,X2_M11,X1_M11
2023-09-15 18:00:00,SystemResetWarning,0838.0,5.00,000.00,028.7,027.4,000.0,037.0,030.4,23.7,0000.0,0009.16,0004.26,0003.72
2023-09-15 18:01:00,SystemResetWarning,0838.0,5.00,000.00,028.7,027.4,000.0,037.0,030.4,23.9,0000.0,0008.72,0004.24,0003.71
2023-09-15 18:02:00,SystemResetWarning,0838.0,5.01,000.00,028.7,027.4,000.0,037.0,030.4,23.8,0000.0,0008.35,0004.24,0003.72
2023-09-15 18:03:00,SystemResetWarning,0838.0,5.00,000.00,028.8,027.4,000.0,037.0,030.4,23.9,0000.0,0008.27,0004.23,0003.71
2023-09-15 18:04:00,SystemResetWarning,0838.0,5.01,000.00,028.8,027.5,000.0,037.0,030.4,24.0,0000.0,0008.19,0004.21,0003.70
2023-09-15 18:05:00,SystemResetWarning,0837.9,5.00,000.00,028.8,027.5,000.0,037.0,030.5,25.0,0000.0,0007.58,0004.22,0003.70
2023-09-15 18:06:00,SystemResetWarning,0838.0,5.00,000.00,028.8,027.5,000.0,037.1,030.5,24.8,0000.0,0008.00,0004.24,0003.69
2023-09-15 18:07:00,SystemResetWarning,0838.0,5.00,000.00,028.8,027.6,000.0,037.1,030.5,24.3,0000.0,0008.17,0004.24,0003.68
2023-09-15 18:08:00,SystemResetWarning,0838.0,5.00,000.00,028.9,027.6,000.0,037.1,030.5,24.5,0000.0,0008.22,0004.22,0003.66
2023-09-15 18:09:00,SystemResetWarning,0838.0,5.00,000.00,028.9,027.6,000.0,037.1,030.6,24.3,0000.0,0008.28,0004.24,0003.66
2023-09-15 18:10:00,SystemResetWarning,0838.0,5.00,000.00,028.9,027.6,000.0,037.1,030.6,23.5,0000.0,0008.76,0004.26,0003.65
2023-09-15 18:11:00,SystemResetWarning,0838.0,5.00,000.00,028.9,027.6,000.0,037.1,030.6,23.7,0000.0,0008.90,0004.28,0003.65
2023-09-15 18:12:00,SystemResetWarning,0838.0,5.00,000.00,028.9,027.6,000.0,037.1,030.6,23.9,0000.0,0008.75,0004.24,0003.65
2023-09-15 18:13:00,SystemResetWarning,0838.0,5.00,000.00,028.9,027.0,000.0,037.1,030.4,24.5,0000.0,0008.83,0004.25,0003.64
2023-09-15 18:14:00,SystemResetWarning,0838.0,5.00,000.00,028.8,025.5,000.0,037.1,029.9,24.5,0000.0,0008.74,0004.21,0003.64
2023-09-15 18:15:00,SystemResetWarning,0838.0,5.01,000.00,028.7,025.1,000.0,037.0,029.9,24.5,0000.0,0008.61,0004.20,0003.65
2023-09-15 18:16:00,SystemResetWarning,0838.0,5.01,000.00,028.6,025.2,000.0,037.0,029.8,24.4,0000.0,0008.75,0004.22,0003.67
2023-09-15 18:17:00,SystemResetWarning,0838.0,5.00,000.00,028.6,025.5,000.0,037.0,029.8,24.7,0000.0,0009.85,0004.23,0003.67
2023-09-15 18:18:00,SystemResetWarning,0838.0,4.98,000.00,028.5,025.8,000.0,037.0,029.9,24.8,0000.0,0010.78,0004.23,0003.68
2023-09-15 18:19:00,SystemResetWarning,0837.9,4.99,000.00,028.5,026.1,000.0,037.0,030.0,24.9,0000.0,0010.85,0004.26,0003.70
2023-09-15 18:20:00,SystemResetWarning,0837.9,5.01,000.00,028.5,026.3,000.0,036.9,030.0,24.9,0000.0,0010.89,0004.28,0003.71
2023-09-15 18:21:00,SystemResetWarning,0838.0,5.01,000.00,028.5,026.5,000.0,036.9,030.1,24.9,0000.0,0010.52,0004.26,0003.71
2023-09-15 18:22:00,SystemResetWarning,0837.9,5.00,000.00,028.5,026.7,000.0,036.9,030.1,25.0,0000.0,0010.27,0004.22,0003.70
2023-09-15 18:23:00,SystemResetWarning,0838.0,4.99,000.00,028.5,026.8,000.0,036.9,030.2,24.6,0000.0,0010.25,0004.21,0003.70
2023-09-15 18:24:00,SystemResetWarning,0838.0,4.99,000.00,028.6,026.9,000.0,036.9,030.2,24.8,0000.0,0010.22,0004.20,0003.70
2023-09-15 18:25:00,SystemResetWarning,0837.9,4.99,000.00,028.6,027.0,000.0,036.9,030.2,25.0,0000.0,0010.27,0004.22,0003.70
2023-09-15 18:26:00,SystemResetWarning,0838.0,5.01,000.00,028.6,027.1,000.0,036.9,030.2,25.1,0000.0,0010.30,0004.22,0003.70
2023-09-15 18:27:00,SystemResetWarning,0837.9,5.01,000.00,028.6,027.2,000.0,036.9,030.2,24.9,0000.0,0010.31,0004.20,0003.69
2023-09-15 18:28:00,SystemResetWarning,0837.9,5.00,000.00,028.6,027.2,000.0,036.9,030.3,24.9,0000.0,0008.94,0004.20,0003.68
2023-09-15 18:29:00,SystemResetWarning,0838.0,5.00,000.00,028.6,027.3,000.0,036.9,030.3,25.2,0000.0,0007.77,0004.19,0003.68
2023-09-15 18:30:00,SystemResetWarning,0838.0,5.00,000.00,028.7,027.3,000.0,036.9,030.3,25.8,0000.0,0007.57,0004.13,0003.67
2023-09-15 18:31:00,SystemResetWarning,0838.0,5.00,000.00,028.7,027.3,000.0,036.9,030.3,25.8,0000.0,0007.44,0004.12,0003.66
2023-09-15 18:32:00,SystemResetWarning,0838.0,5.00,000.00,028.7,027.4,000.0,036.9,030.4,24.3,0000.0,0007.90,0004.14,0003.66
2023-09-15 18:33:00,SystemResetWarning,0837.9,5.00,000.00,028.7,027.4,000.0,037.0,030.4,24.1,0000.0,0008.35,0004.17,0003.66
2023-09-15 18:34:00,SystemResetWarning,0838.0,5.00,000.00,028.7,027.4,000.0,037.0,030.4,24.2,0000.0,0008.51,0004.21,0003.67
2023-09-15 18:35:00,SystemResetWarning,0838.0,4.99,000.00,028.7,027.4,000.0,037.0,030.4,24.5,0000.0,0008.60,0004.22,0003.65
2023-09-15 18:36:00,SystemResetWarning,0838.0,5.00,000.00,028.8,027.5,000.0,037.0,030.4,25.2,0000.0,0008.50,0004.21,0003.65
2023-09-15 18:37:00,SystemResetWarning,0837.9,5.00,000.00,028.8,027.5,000.0,037.0,030.4,25.4,0000.0,0008.43,0004.21,0003.65
2023-09-15 18:38:00,SystemResetWarning,0838.0,5.00,000.00,028.8,027.4,000.0,037.0,030.4,24.6,0000.0,0008.21,0004.20,0003.65
2023-09-15 18:39:00,SystemResetWarning,0838.0,4.99,000.00,028.8,026.2,000.0,037.0,030.1,24.4,0000.0,0008.09,0004.19,0003.66
2023-09-15 18:40:00,SystemResetWarning,0837.9,5.00,000.00,028.6,025.1,000.0,036.9,029.8,24.5,0000.0,0008.12,0004.18,0003.67
2023-09-15 18:41:00,SystemResetWarning,0837.9,5.01,000.00,028.5,025.0,000.0,036.9,029.7,24.8,0000.0,0008.51,0004.22,0003.66
2023-09-15 18:42:00,SystemResetWarning,0837.8,5.01,000.00,028.5,025.2,000.0,036.9,029.6,25.2,0000.0,0009.18,0004.25,0003.67
2023-09-15 18:43:00,SystemResetWarning,0837.8,4.99,000.00,028.4,025.5,000.0,036.9,029.7,25.0,0000.0,0008.90,0004.28,0003.69
2023-09-15 18:44:00,SystemResetWarning,0837.9,4.99,000.00,028.4,025.8,000.0,036.9,029.8,25.4,0000.0,0008.59,0004.33,0003.73
2023-09-15 18:45:00,SystemResetWarning,0837.9,5.01,000.00,028.4,026.0,000.0,036.8,029.9,26.0,0000.0,0008.49,0004.33,0003.75
2023-09-15 18:46:00,SystemResetWarning,0837.9,5.00,000.00,028.4,026.3,000.0,036.8,029.9,25.7,0000.0,0008.47,0004.34,0003.77
2023-09-15 18:47:00,SystemResetWarning,0837.9,5.00,000.00,028.4,026.5,000.0,036.8,030.0,25.9,0000.0,0008.51,0004.37,0003.79
2023-09-15 18:48:00,SystemResetWarning,0837.8,5.00,000.00,028.4,026.6,000.0,036.8,030.0,26.3,0000.0,0008.53,0004.37,0003.79
2023-09-15 18:49:00,SystemResetWarning,0837.8,5.00,000.00,028.4,026.8,000.0,036.8,030.0,26.2,0000.0,0008.62,0004.39,0003.80
2023-09-15 18:50:00,SystemResetWarning,0837.8,5.00,000.00,028.5,026.9,000.0,036.8,030.1,26.0,0000.0,0008.90,0004.42,0003.79
2023-09-15 18:51:00,SystemResetWarning,0837.8,5.00,000.00,028.5,027.0,000.0,036.8,030.1,25.8,0000.0,0008.80,0004.42,0003.81
2023-09-15 18:52:00,SystemResetWarning,0837.8,4.99,000.00,028.5,027.1,000.0,036.8,030.2,25.7,0000.0,0008.47,0004.41,0003.83
2023-09-15 18:53:00,SystemResetWarning,0837.8,4.99,000.00,028.5,027.1,000.0,036.8,030.2,25.3,0000.0,0007.96,0004.43,0003.84
2023-09-15 18:54:00,SystemResetWarning,0837.8,5.01,000.00,028.5,027.2,000.0,036.8,030.2,26.0,0000.0,0007.74,0004.41,0003.84
2023-09-15 18:55:00,SystemResetWarning,0837.7,5.01,000.00,028.6,027.2,000.0,036.8,030.2,25.6,0000.0,0007.62,0004.36,0003.82
2023-09-15 18:56:00,SystemResetWarning,0837.8,4.99,000.00,028.6,027.2,000.0,036.8,030.2,24.8,0000.0,0007.55,0004.34,0003.81
2023-09-15 18:57:00,SystemResetWarning,0837.8,4.99,000.00,028.6,027.3,000.0,036.8,030.3,25.0,0000.0,0007.58,0004.36,0003.81
2023-09-15 18:58:00,SystemResetWarning,0837.8,5.00,000.00,028.6,027.3,000.0,036.8,030.3,25.3,0000.0,0007.56,0004.35,0003.81
2023-09-15 18:59:00,SystemResetWarning,0837.8,5.00,000.00,028.6,027.3,000.0,036.9,030.3,25.0,0000.0,0007.59,0004.36,0003.82
